[[{"header":{"parameterUnit":"m.s-1","parameterCategory":1,"la1":30.2991,"la2":30.254,"lo1":-89.0895,"lo2":-89.0444,"dy":0.0017,"dx":0.0017,"nx":28,"ny":28,"refTime":"2025-03-19T03:00:00:Z","depth":0,"parameterNumber":2,"parameterNumberName":"U-component_of_WINDS"},"data":[0,0,0,0,0,0,0,0,0,0,0,0,0,0,0,0,0,0,0,0,0,0,0,0,0,0,0,0,0,0,0,0,0,0,0,0,0,0,0,0,0,0,0,0,0,0,0,0,0,0,0,0,0,0,0,0,0,0,-0.5613,-0.5614,0,-0.5625,-0.5625,-0.5626,-0.563,-0.563,-0.563,-0.563,-0.5641,-0.5641,-0.5642,0,0,0,0,0,0,0,0,0,0,0,0,0,-0.5593,-0.5593,-0.5613,-0.5614,-0.5614,-0.5625,-0.5625,-0.5626,-0.563,-0.563,-0.563,-0.563,-0.5641,-0.5641,-0.5642,0,0,0,0,0,0,0,0,0,0,0,0,0,-0.5603,-0.5594,-0.5613,-0.5617,-0.5618,-0.5625,-0.5625,-0.5626,-0.563,-0.563,-0.563,-0.563,-0.5641,-0.5641,-0.5642,-0.5645,0,0,-0.5643,-0.5643,0,0,0,0,0,0,0,0,-0.5602,-0.5604,-0.5617,-0.5617,-0.5618,-0.5626,-0.5622,-0.5632,-0.563,-0.5626,-0.563,-0.563,-0.5636,-0.5637,-0.5639,-0.5646,-0.5646,-0.5643,-0.5643,-0.5644,-0.5644,0,0,0,0,0,0,0,-0.5602,-0.5603,-0.5618,-0.5617,-0.5618,-0.5618,-0.562,-0.5624,-0.5631,-0.5626,-0.5626,-0.5628,-0.5636,-0.5639,-0.5639,-0.5647,-0.5643,-0.5644,-0.5644,-0.5644,-0.5656,-0.5656,0,0,0,0,0,0,-0.5601,-0.5603,-0.5618,-0.5618,-0.561,-0.5619,-0.562,-0.5624,-0.5631,-0.5632,-0.5628,-0.5628,-0.5638,-0.5639,-0.564,-0.5644,-0.5644,-0.5644,-0.5644,-0.5656,-0.5656,-0.5656,0,0,0,0,0,0,-0.56,-0.5602,-0.5617,-0.5611,-0.5613,-0.5619,-0.5623,-0.5624,-0.5626,-0.5632,-0.5633,-0.5629,-0.5638,-0.5639,-0.5644,-0.5645,-0.5644,-0.5645,-0.5656,-0.5656,-0.5656,-0.5654,0,0,0,0,0,0,-0.56,-0.5602,-0.5604,-0.5611,-0.5613,-0.5622,-0.5623,-0.5624,-0.5627,-0.5628,-0.5634,-0.5635,-0.5638,-0.5643,-0.5644,-0.5646,-0.5645,-0.5656,-0.5656,-0.5656,-0.5654,-0.5654,-0.5654,0,0,0,0,0,-0.5599,-0.5602,-0.5604,-0.5606,-0.5616,-0.5622,-0.5623,-0.5627,-0.5627,-0.5629,-0.5633,-0.5635,-0.5645,-0.5644,-0.5645,-0.5646,-0.5656,-0.5656,-0.5656,-0.5654,-0.5654,-0.5654,0,0,0,0,0,0,-0.5595,-0.5603,-0.5605,-0.5611,-0.5616,-0.5622,-0.5625,-0.5627,-0.5631,-0.5631,-0.5636,-0.5637,-0.5641,-0.5644,-0.5643,-0.565,-0.565,-0.5651,-0.5648,-0.5648,-0.5648,-0.5647,-0.5646,0,0,0,0,0,-0.5595,-0.5599,-0.5606,-0.5611,-0.5613,-0.5618,-0.5621,-0.5624,-0.5629,-0.5631,-0.5635,-0.5639,-0.5643,-0.5646,-0.565,-0.5654,-0.5655,-0.5656,-0.5655,-0.5655,-0.5656,-0.5658,-0.5658,-0.5657,-0.5657,-0.5657,0,0,-0.5594,-0.5599,-0.5602,-0.561,-0.5614,-0.5618,-0.562,-0.5625,-0.5628,-0.5631,-0.5636,-0.5639,-0.5644,-0.5649,-0.5651,-0.5651,-0.5656,-0.5656,-0.5655,-0.5656,-0.5658,-0.5658,-0.5658,-0.5657,-0.5657,-0.5657,0,0,-0.5596,-0.56,-0.5604,-0.5608,-0.5614,-0.5618,-0.5619,-0.5625,-0.5628,-0.5633,-0.5635,-0.5639,-0.5646,-0.5649,-0.5652,-0.5654,-0.5656,-0.5655,-0.5655,-0.5657,-0.5657,-0.5657,-0.5657,-0.5658,-0.5655,-0.5655,-0.5655,0,-0.5594,-0.5602,-0.5606,-0.5611,-0.5614,-0.5617,-0.5621,-0.5625,-0.5631,-0.5633,-0.5634,-0.5642,-0.5646,-0.5651,-0.5652,-0.5654,-0.5655,-0.5654,-0.5656,-0.5657,-0.5657,-0.5657,-0.5658,-0.5655,-0.5655,-0.5655,-0.5655,0,-0.5599,-0.5604,-0.5607,-0.5614,-0.5617,-0.5621,-0.5626,-0.5628,-0.5631,-0.5634,-0.5639,-0.5643,-0.5648,-0.5649,-0.5652,-0.5655,-0.5655,-0.5656,-0.5656,-0.5657,-0.5657,-0.5658,-0.5655,-0.5655,-0.5655,-0.5655,0,0,-0.5599,-0.5608,-0.5609,-0.5612,-0.5619,-0.5622,-0.5626,-0.5631,-0.5633,-0.5638,-0.5641,-0.5647,-0.5647,-0.565,-0.5653,-0.5655,-0.5656,-0.5655,-0.5656,-0.5655,-0.5659,-0.5658,-0.5659,-0.5657,-0.5657,-0.5657,-0.5659,0,-0.5601,-0.5609,-0.5613,-0.5619,-0.5623,-0.5626,-0.563,-0.5634,-0.5637,-0.564,-0.5643,-0.5647,-0.5648,-0.565,-0.5652,-0.5655,-0.5657,-0.5655,-0.5659,-0.566,-0.5658,-0.5659,-0.5658,-0.566,-0.5659,-0.5659,-0.5659,0,-0.5605,-0.561,-0.5616,-0.5622,-0.5624,-0.5627,-0.5632,-0.5635,-0.564,-0.5642,-0.5645,-0.5647,-0.5651,-0.5651,-0.5656,-0.5655,-0.5657,-0.5659,-0.5659,-0.5659,-0.5659,-0.5659,-0.566,-0.566,-0.566,-0.5659,-0.5659,0,-0.5604,-0.5612,-0.5617,-0.5619,-0.5626,-0.5628,-0.5631,-0.5635,-0.5638,-0.5642,-0.5644,-0.5648,-0.565,-0.5653,-0.5657,-0.5656,-0.5661,-0.5661,-0.5662,-0.5662,-0.5663,-0.5663,-0.5664,-0.5665,-0.5665,-0.5664,-0.5664,0,-0.5606,-0.561,-0.5616,-0.5619,-0.5623,-0.5627,-0.5631,-0.5634,-0.5638,-0.5641,-0.5644,-0.5647,-0.5651,-0.5654,-0.5657,-0.566,-0.5661,-0.5662,-0.5663,-0.5662,-0.5662,-0.5664,-0.5664,-0.5665,-0.5665,-0.5665,-0.5665,0,-0.5606,-0.561,-0.5615,-0.5622,-0.5623,-0.5626,-0.5631,-0.5633,-0.5636,-0.564,-0.5641,-0.5646,-0.565,-0.5654,-0.5659,-0.566,-0.5664,-0.5664,-0.5662,-0.5663,-0.5663,-0.5663,-0.5665,-0.5666,-0.5666,-0.5666,-0.5666,0,-0.5607,-0.561,-0.5616,-0.5619,-0.5622,-0.5626,-0.5628,-0.5632,-0.5635,-0.564,-0.5642,-0.5646,-0.565,-0.5656,-0.5659,-0.5663,-0.5664,-0.5664,-0.5664,-0.5663,-0.5664,-0.5663,-0.5664,-0.5664,-0.5664,-0.5664,-0.5664,0,-0.5608,-0.561,-0.5614,-0.5619,-0.5622,-0.5626,-0.563,-0.5632,-0.5637,-0.5639,-0.5644,-0.5646,-0.5651,-0.5655,-0.5659,-0.5662,-0.5664,-0.5664,-0.5664,-0.5664,-0.5662,-0.5663,-0.5662,-0.5664,-0.5664,-0.5664,-0.5664,-0.5664,-0.5608,-0.5611,-0.5616,-0.562,-0.5624,-0.5627,-0.563,-0.5633,-0.5637,-0.5642,-0.5644,-0.5648,-0.5652,-0.5658,-0.566,-0.5663,-0.5663,-0.5664,-0.5664,-0.5664,-0.5664,-0.5662,-0.5664,-0.5664,-0.5664,-0.5664,-0.5664,0,-0.561,-0.5613,-0.5617,-0.5623,-0.5626,-0.5628,-0.5632,-0.5634,-0.5638,-0.5642,-0.5645,-0.565,-0.5653,-0.5657,-0.5661,-0.5663,-0.5663,-0.5663,-0.5663,-0.5664,-0.5663,-0.5663,-0.5663,-0.5663,-0.5663,-0.5663,-0.5663,-0.5663,-0.5611,-0.5615,-0.5618,-0.5624,-0.5627,-0.5631,-0.5633,-0.5637,-0.564,-0.5645,-0.5648,-0.565,-0.5654,-0.5658,-0.5661,-0.5662,-0.5663,-0.5663,-0.5664,-0.5664,-0.5664,-0.5664,-0.5663,-0.5663,-0.5663,-0.5664,-0.5664,-0.5664]},{"header":{"parameterUnit":"m.s-1","parameterCategory":1,"la1":30.2991,"la2":30.254,"lo1":-89.0895,"lo2":-89.0444,"dy":0.0017,"dx":0.0017,"nx":28,"ny":28,"refTime":"2025-03-19T03:00:00:Z","depth":0,"parameterNumber":3,"parameterNumberName":"V-component_of_WINDS"},"data":[0,0,0,0,0,0,0,0,0,0,0,0,0,0,0,0,0,0,0,0,0,0,0,0,0,0,0,0,0,0,0,0,0,0,0,0,0,0,0,0,0,0,0,0,0,0,0,0,0,0,0,0,0,0,0,0,0,0,6.7381,6.7382,0,6.7438,6.7439,6.7439,6.7426,6.7425,6.7424,6.7423,6.7474,6.7477,6.7479,0,0,0,0,0,0,0,0,0,0,0,0,0,6.7254,6.7257,6.7381,6.7382,6.7382,6.7438,6.7439,6.7439,6.7426,6.7425,6.7424,6.7422,6.7474,6.7476,6.7479,0,0,0,0,0,0,0,0,0,0,0,0,0,6.731,6.7257,6.7381,6.7383,6.7383,6.7438,6.7439,6.744,6.7426,6.7425,6.7423,6.7422,6.7473,6.7476,6.748,6.7534,0,0,6.749,6.7492,0,0,0,0,0,0,0,0,6.7307,6.7314,6.7382,6.7383,6.7384,6.7423,6.7413,6.7471,6.7427,6.741,6.7423,6.7421,6.7458,6.7463,6.7477,6.7536,6.7538,6.7491,6.7493,6.7494,6.7495,0,0,0,0,0,0,0,6.7303,6.7312,6.7403,6.7383,6.7384,6.7378,6.7385,6.7424,6.7442,6.7411,6.741,6.7418,6.7458,6.7473,6.7478,6.7539,6.7491,6.7494,6.7496,6.7497,6.7646,6.7648,0,0,0,0,0,0,6.7299,6.7309,6.7401,6.7405,6.7341,6.7382,6.7389,6.7412,6.7442,6.7445,6.7419,6.7417,6.7468,6.7474,6.748,6.7546,6.7494,6.7498,6.75,6.7644,6.7647,6.7649,0,0,0,0,0,0,6.7296,6.7308,6.7399,6.7357,6.7368,6.7386,6.7412,6.7414,6.7429,6.7448,6.745,6.7432,6.7467,6.7475,6.7521,6.7548,6.7499,6.7503,6.7642,6.7645,6.7648,6.7679,0,0,0,0,0,0,6.7293,6.7307,6.7329,6.7358,6.737,6.7442,6.7414,6.7416,6.7436,6.7434,6.746,6.7463,6.7466,6.7516,6.7525,6.7552,6.7505,6.764,6.7643,6.7647,6.7676,6.7682,6.7688,0,0,0,0,0,6.7288,6.7333,6.733,6.7341,6.7399,6.7443,6.745,6.7456,6.7438,6.746,6.7472,6.7462,6.7543,6.7521,6.753,6.7559,6.7638,6.7642,6.7646,6.7673,6.7681,6.7688,0,0,0,0,0,0,6.7304,6.7337,6.7334,6.739,6.7414,6.7441,6.7468,6.7464,6.7492,6.7488,6.7491,6.7497,6.7545,6.7556,6.753,6.7613,6.7588,6.7594,6.7605,6.7613,6.7619,6.7616,6.7508,0,0,0,0,0,6.7315,6.7351,6.7376,6.7423,6.7436,6.745,6.7469,6.7472,6.7496,6.7505,6.7521,6.7543,6.7573,6.7593,6.7622,6.7677,6.7682,6.7701,6.7707,6.7713,6.7718,6.7749,6.7758,6.7662,6.7662,6.7662,0,0,6.7336,6.7358,6.738,6.7427,6.7446,6.7481,6.7459,6.7496,6.7522,6.751,6.7556,6.7568,6.7593,6.7644,6.7667,6.7655,6.7746,6.7718,6.7722,6.7725,6.7754,6.7763,6.7771,6.7665,6.7664,6.7664,0,0,6.7393,6.7414,6.7456,6.7477,6.7507,6.7516,6.7526,6.7554,6.7563,6.7609,6.7602,6.7631,6.7683,6.7702,6.7718,6.7784,6.7776,6.7793,6.7826,6.7856,6.7864,6.787,6.7895,6.7903,6.7798,6.7798,6.7798,0,6.7415,6.7471,6.7478,6.7518,6.7538,6.7532,6.7574,6.7592,6.7629,6.7643,6.7629,6.7696,6.7712,6.7768,6.7785,6.7797,6.7809,6.779,6.7862,6.7869,6.7875,6.7899,6.7908,6.78,6.78,6.78,6.7799,0,6.7497,6.7535,6.7565,6.7605,6.7629,6.7669,6.7681,6.7703,6.7704,6.7714,6.7761,6.7781,6.7814,6.7827,6.7826,6.7883,6.7875,6.7862,6.7836,6.7887,6.7909,6.7918,6.7803,6.7802,6.7802,6.7801,0,0,6.7566,6.7611,6.7622,6.7641,6.7674,6.7702,6.7742,6.7778,6.7798,6.7823,6.7856,6.7901,6.789,6.7908,6.7909,6.7935,6.7988,6.7919,6.7919,6.7932,6.8053,6.8064,6.8074,6.7982,6.7984,6.7985,6.8051,0,6.7628,6.7701,6.7709,6.7774,6.781,6.7804,6.7839,6.7862,6.7873,6.7902,6.7913,6.7946,6.7927,6.7939,6.7964,6.7976,6.8012,6.7971,6.8012,6.8014,6.8008,6.8085,6.8097,6.8159,6.806,6.8061,6.8062,0,6.771,6.7742,6.7811,6.7841,6.7856,6.7888,6.7922,6.795,6.7976,6.7982,6.8004,6.8001,6.8041,6.8013,6.8068,6.804,6.8056,6.8065,6.8067,6.8072,6.8042,6.8094,6.8178,6.8188,6.8075,6.8074,6.8073,0,6.7755,6.7815,6.7865,6.788,6.7916,6.7939,6.7954,6.7979,6.8,6.8028,6.8042,6.8073,6.8091,6.8114,6.812,6.81,6.8175,6.8148,6.818,6.818,6.8197,6.8196,6.8287,6.8206,6.8206,6.8205,6.8205,0,6.7824,6.7867,6.7886,6.7917,6.7965,6.7972,6.8018,6.8032,6.8054,6.8086,6.8082,6.8111,6.8117,6.8147,6.8151,6.8196,6.8203,6.8208,6.8209,6.821,6.821,6.8222,6.8218,6.8208,6.8207,6.8207,6.8206,0,6.7884,6.7899,6.7953,6.7983,6.7992,6.8026,6.8051,6.8079,6.809,6.813,6.814,6.8155,6.8191,6.8199,6.824,6.8243,6.8297,6.8292,6.8289,6.8289,6.8322,6.832,6.8425,6.844,6.8348,6.8349,6.8349,0,6.7928,6.7962,6.7997,6.802,6.8037,6.8073,6.8096,6.8104,6.8127,6.816,6.8184,6.822,6.8249,6.8305,6.8319,6.8351,6.8348,6.8383,6.8353,6.8353,6.835,6.8349,6.8353,6.8389,6.839,6.8391,6.8391,0,6.8005,6.8011,6.8046,6.8083,6.8111,6.814,6.8167,6.8185,6.8196,6.8222,6.8261,6.8283,6.8327,6.8362,6.8394,6.8407,6.8401,6.8401,6.841,6.8412,6.8409,6.8413,6.8307,6.8398,6.8398,6.8397,6.8397,6.8396,6.806,6.809,6.812,6.8159,6.8181,6.8207,6.8236,6.8251,6.8284,6.8323,6.8324,6.8365,6.839,6.8433,6.8448,6.8479,6.8468,6.8482,6.8485,6.8489,6.8493,6.8403,6.8485,6.8485,6.8484,6.8484,6.8484,0,6.8138,6.8158,6.8193,6.8234,6.8264,6.8258,6.8288,6.8313,6.835,6.8375,6.8405,6.8448,6.8482,6.8499,6.8533,6.8555,6.8553,6.8563,6.8562,6.8566,6.85,6.8489,6.8564,6.8564,6.8564,6.8564,6.8564,6.8564,6.8183,6.8235,6.8244,6.8306,6.8324,6.8368,6.8385,6.8409,6.8429,6.8479,6.8509,6.852,6.8542,6.8577,6.8608,6.8612,6.8625,6.8637,6.864,6.8578,6.857,6.8562,6.8552,6.8639,6.864,6.8703,6.8703,6.8704]}]]